Location: Hylvaty SDH
(49.9612°N, 16.4057°E)
Time: 10:58:42
(UTC+01:00)

Tiros 1 - Pass Details

Date: 11 October 2020
Orbit: 630 x 663 km, 48.4° (Epoch: 28 October)

Event Time Altitude Azimuth Distance (km) Brightness Sun altitude
Rises 17:29:44 0° 276° (W) 2,961 11.9 5.6°
Reaches altitude 10° 17:33:35 10° 245° (WSW) 2,054 12.3 5.0°
Maximum altitude 17:35:14 12° 224° (SW) 1,943 10.9 4.7°
Drops below altitude 10° 17:36:53 10° 204° (SSW) 2,057 10.4 4.5°
Sets 17:40:46 0° 172° (S) 2,970 10.7 3.9°
